SM0IFP-13 Drevviken Tyreso SE current weather conditions

sailwx.info

Wind from 300 at 1 knots gusting 6

Air temperature 24.4° C
Dewpoint 8.0° C

Last reported at 2020-Aug-11 12:54 UTC.
Time now 2020-Aug-12 05:51 UTC

Location: N 59°13' E 018°11'.
View on Google Maps.

See reports from other nearby stations

  
Tides and Currents Weather Stations Pressure Air Temp Water Temp Dewpoint Dewpoint Depression Visibility Wind Speed Wind Dir Waves Ship Positions
date/time (UTC)wind fromknots sea level pressurealtimeterstation pressurevisibilityair tempwater tempwave heightnotes
2020-Aug-11 12:54 300 1 gusting 6 24.4
2020-Aug-11 12:45 336 2 gusting 7 22.8
2020-Aug-11 12:36 075 3 gusting 6 24.4
2020-Aug-11 12:27 068 24.4
2020-Aug-11 12:18 319 1 gusting 6 24.4
2020-Aug-11 12:09 021 1 gusting 6 23.3
2020-Aug-11 12:00 307 0 gusting 7 22.8
2020-Aug-11 11:51 341 1 gusting 6 24.4
2020-Aug-11 11:42 024 22.8
2020-Aug-11 11:33 299 22.8
2020-Aug-11 11:24 312 22.8
2020-Aug-11 11:15 058 22.8
2020-Aug-11 11:06 057 2 gusting 6 22.2
2020-Aug-11 10:58 065 4 gusting 7 22.2
2020-Aug-11 10:48 049 0 gusting 6 21.7
2020-Aug-11 10:39 063 5 gusting 6 22.2
2020-Aug-11 10:30 053 21.7
2020-Aug-11 10:21 074 1 gusting 10 21.7
2020-Aug-11 10:12 048 3 gusting 8 21.7
2020-Aug-11 10:03 022 1 gusting 6 21.7
2020-Aug-11 09:54 052 4 gusting 9 21.7
2020-Aug-11 09:45 061 6 gusting 9 21.7
2020-Aug-11 09:36 069 1 gusting 9 21.7
2020-Aug-11 09:27 083 5 gusting 7 22.2
2020-Aug-11 09:18 015 1 gusting 6 21.7
2020-Aug-11 09:09 038 1 gusting 8 21.1
2020-Aug-11 09:00 069 6 gusting 9 21.1
2020-Aug-11 08:51 050 1 gusting 9 21.1
2020-Aug-11 08:42 048 2 gusting 7 21.7
2020-Aug-11 08:33 047 3 gusting 5 21.7
2020-Aug-11 08:24 017 2 gusting 5 21.7
2020-Aug-11 08:15 343 0 gusting 10 21.7
2020-Aug-11 08:06 324 0 gusting 6 21.7
2020-Aug-11 07:57 042 0 gusting 6 20.6
2020-Aug-11 07:48 038 1 gusting 6 21.1
2020-Aug-11 07:39 313 21.1
2020-Aug-11 07:30 013 20.6
2020-Aug-11 07:21 326 1 gusting 3 20.0
2020-Aug-11 07:12 313 1 gusting 5 19.4
2020-Aug-11 07:03 310 3 gusting 5 18.3
2020-Aug-11 06:54 309 2 gusting 6 17.2
2020-Aug-11 06:45 309 0 gusting 6 16.7
2020-Aug-11 06:36 304 1 gusting 6 16.7
2020-Aug-11 06:27 323 16.1
2020-Aug-11 06:18 333 1 gusting 6 16.1
2020-Aug-11 06:09 325 16.1
2020-Aug-11 06:00 312 0 gusting 4 15.6
2020-Aug-11 05:51 344 15.6
2020-Aug-11 05:42 332 1 gusting 3 15.0
2020-Aug-11 05:33 360 14.4
2020-Aug-11 05:24 300 14.4
2020-Aug-11 05:15 306 14.4
2020-Aug-11 05:06 318 1 gusting 6 14.4
2020-Aug-11 04:57 324 3 gusting 5 15.6
2020-Aug-11 04:48 338 1 gusting 3 15.6
2020-Aug-11 04:39 304 15.6
2020-Aug-11 04:30 313 14.4
2020-Aug-11 04:21 324 1 gusting 5 14.4
2020-Aug-11 04:12 315 13.9
2020-Aug-11 04:03 12.8
2020-Aug-11 03:54 12.2
2020-Aug-11 03:45 11.7
2020-Aug-11 03:36 11.7
2020-Aug-11 03:27 11.7
2020-Aug-11 03:18 319 11.7
2020-Aug-11 03:09 11.1
2020-Aug-11 02:51 11.1
2020-Aug-11 02:42 11.1
2020-Aug-11 02:33 11.7
2020-Aug-11 02:24 11.7
2020-Aug-11 02:15 11.7
2020-Aug-11 02:06 11.7
2020-Aug-11 01:57 11.7
2020-Aug-11 01:48 11.7
2020-Aug-11 01:39 11.7
2020-Aug-11 01:30 11.7
2020-Aug-11 01:21 11.7
2020-Aug-11 01:12 360 12.2
2020-Aug-11 01:03 12.2
2020-Aug-11 00:54 12.2
2020-Aug-11 00:45 11.7
2020-Aug-11 00:36 11.7
2020-Aug-11 00:27 11.1
2020-Aug-11 00:18 11.7
2020-Aug-11 00:09 11.7
2020-Aug-11 00:00 11.7
2020-Aug-10 23:51 12.2
2020-Aug-10 23:42 12.2
2020-Aug-10 23:33 12.2
2020-Aug-10 23:24 12.2
2020-Aug-10 23:15 12.2
2020-Aug-10 23:06 12.2
2020-Aug-10 22:57 12.2
2020-Aug-10 22:48 12.2
2020-Aug-10 22:39 12.8
2020-Aug-10 22:30 12.8
2020-Aug-10 22:21 12.8
2020-Aug-10 22:12 13.3
2020-Aug-10 22:03 13.3
2020-Aug-10 21:54 13.3
2020-Aug-10 21:45 13.3
2020-Aug-10 21:36 13.9
2020-Aug-10 21:27 13.9
2020-Aug-10 21:18 13.9
2020-Aug-10 21:09 13.9
2020-Aug-10 21:00 13.9
2020-Aug-10 20:51 14.4
2020-Aug-10 20:42 14.4
2020-Aug-10 20:33 14.4
2020-Aug-10 20:24 15.0
2020-Aug-10 20:15 15.6
2020-Aug-10 20:06 15.6
2020-Aug-10 19:57 15.6
2020-Aug-10 19:48 15.6
2020-Aug-10 19:39 16.1
2020-Aug-10 19:30 16.7
2020-Aug-10 19:21 16.7
2020-Aug-10 19:12 16.7
2020-Aug-10 19:03 057 17.2
2020-Aug-10 18:54 068 1 gusting 4 17.8
2020-Aug-10 18:45 049 1 gusting 3 17.8
2020-Aug-10 18:36 053 1 gusting 6 18.3
2020-Aug-10 18:27 069 3 gusting 5 18.9
2020-Aug-10 18:18 056 0 gusting 6 19.4
2020-Aug-10 18:09 046 1 gusting 6 19.4
2020-Aug-10 18:00 061 2 gusting 6 20.0
2020-Aug-10 17:51 055 3 gusting 6 20.6
2020-Aug-10 17:42 044 1 gusting 7 20.6
2020-Aug-10 17:33 056 3 gusting 6 21.1
2020-Aug-10 17:24 060 2 gusting 12 20.6
2020-Aug-10 17:15 063 2 gusting 7 21.1
2020-Aug-10 17:06 049 1 gusting 9 21.1
2020-Aug-10 16:57 053 21.1
2020-Aug-10 16:48 071 6 gusting 9 21.1
2020-Aug-10 16:39 046 2 gusting 7 21.7
2020-Aug-10 16:30 065 2 gusting 10 21.7
2020-Aug-10 16:21 063 3 gusting 9 22.2
2020-Aug-10 16:12 057 6 gusting 13 22.2
2020-Aug-10 16:03 054 6 gusting 12 22.2
2020-Aug-10 15:54 050 4 gusting 8 22.8
2020-Aug-10 15:45 053 3 gusting 9 23.9
2020-Aug-10 15:36 060 6 gusting 9 23.9
2020-Aug-10 15:27 062 3 gusting 9 23.9
2020-Aug-10 15:18 073 2 gusting 8 23.9
2020-Aug-10 15:09 067 6 gusting 10 23.9
2020-Aug-10 15:00 057 6 gusting 9 24.4
2020-Aug-10 14:51 053 1 gusting 9 24.4
2020-Aug-10 14:42 064 1 gusting 10 23.9
2020-Aug-10 14:33 047 1 gusting 6 25.0
2020-Aug-10 14:24 048 0 gusting 6 25.0
2020-Aug-10 14:15 061 25.0
2020-Aug-10 14:06 096 26.1
2020-Aug-10 13:57 116 1 gusting 4 25.0
2020-Aug-10 13:48 341 0 gusting 6 25.0
2020-Aug-10 13:39 300 0 gusting 6 25.0
2020-Aug-10 13:30 316 3 gusting 6 25.0
2020-Aug-10 13:21 313 2 gusting 6 25.0
2020-Aug-10 13:12 076 3 gusting 6 24.4
2020-Aug-10 13:03 355 2 gusting 6 25.0
2020-Aug-10 12:54 284 4 gusting 6 24.4
2020-Aug-10 12:45 296 1 gusting 8 23.9
2020-Aug-10 12:36 322 5 gusting 7 24.4
2020-Aug-10 12:27 309 2 gusting 7 25.0
2020-Aug-10 12:18 306 4 gusting 6 25.0
2020-Aug-10 12:09 313 0 gusting 6 25.0
2020-Aug-10 12:00 329 4 gusting 6 25.0
2020-Aug-10 11:51 068 2 gusting 4 25.0
2020-Aug-10 11:42 052 23.9
2020-Aug-10 10:21 034 3 gusting 9 23.3
2020-Aug-10 10:12 040 1 gusting 11 22.2
2020-Aug-10 10:03 053 4 gusting 11 22.2
2020-Aug-10 09:54 082 0 gusting 9 21.7
2020-Aug-10 09:45 088 5 gusting 9 21.7
2020-Aug-10 09:36 076 1 gusting 8 21.7
2020-Aug-10 09:27 069 5 gusting 9 21.1
2020-Aug-10 09:18 071 5 gusting 9 21.1
2020-Aug-10 09:09 056 6 gusting 11 21.1
2020-Aug-10 09:00 045 0 gusting 11 21.1
2020-Aug-10 08:51 032 3 gusting 9 21.1
2020-Aug-10 08:42 056 1 gusting 10 21.1
2020-Aug-10 08:33 094 3 gusting 11 21.7
2020-Aug-10 08:24 066 6 gusting 11 21.7
2020-Aug-10 08:15 056 22.2
2020-Aug-10 08:06 070 1 gusting 9 22.2
2020-Aug-10 07:57 033 0 gusting 6 22.2
2020-Aug-10 07:48 014 3 gusting 5 22.2
2020-Aug-10 07:39 331 21.7
2020-Aug-10 07:30 357 2 gusting 5 21.7
2020-Aug-10 07:21 011 21.7
2020-Aug-10 07:12 337 20.6
2020-Aug-10 07:03 331 3 gusting 6 20.0
2020-Aug-10 06:54 334 18.9
2020-Aug-10 06:45 338 0 gusting 3 18.3
2020-Aug-10 06:36 079 18.3
2020-Aug-10 06:27 053 1 gusting 4 17.8
2020-Aug-10 06:18 041 1 gusting 1 18.3
2020-Aug-10 06:09 360 17.8
2020-Aug-10 06:00 315 17.2
2020-Aug-10 05:51 355 16.7
2020-Aug-10 05:42 333 16.7
2020-Aug-10 05:33 333 0 gusting 4 16.7
2020-Aug-10 05:24 002 1 gusting 3 16.7
2020-Aug-10 05:15 282 16.1
2020-Aug-10 05:06 336 16.7